Location: Monrovia
(34.7865°N, 86.7139°W)
Time: 21:56:19
(UTC+00:00)

Cosmos 2151 - Pass Details

Date: 14 July 2020
Orbit: 580 x 602 km, 82.5° (Epoch: 08 August)

Event Time Altitude Azimuth Distance (km) Brightness Sun altitude
Exits shadow 03:43:44 52° 22° (NNE) 741 3.5 -25.8°
Drops below altitude 10° 03:47:01 10° 10° (N) 1,929 6.2 -26.2°
Sets 03:49:14 0° 9° (N) 2,830 7.2 -26.4°
